sat.trackr.live / text

‹ back to catalog

GPS BIIRM-1 (PRN 17)

NORAD 28874 · 2005-038A

PAYLOAD ACTIVE UNKNOWN

§ Identity

Operator
Country
US
Launch date
2005-09-26
Launch site
AFETR
Launch vehicle
Mass (kg)
RCS (m²)
3.27

Purposes: earth_obs, nav

External: N2YO · Heavens-Above · Gunter

§ Orbital elements

Epoch: 2026-05-24T10:23:07.865088Z

Period
717.96 min
Inclination
54.8982°
Eccentricity
0.0127727
Mean motion
2.00567298 rev/d
Perigee alt
19,842.6 km
Apogee alt
20,521.1 km
Semi-major
26,560.0 km
B*
0.0000e+0
RAAN
274.1358°
Arg perigee
296.0025°
Mean anomaly
73.3808°
Rev number
15,136

§ Raw data

GPS BIIRM-1 (PRN 17)1 28874U 05038A   26144.43272992 -.00000073  00000+0  00000+0 0  99992 28874  54.8982 274.1358 0127727 296.0025  73.3808  2.00567298151361

JSON: /api/v1/satellites/28874 · /tle

For live sub-satellite position, see the globe view (requires WebGL).

§ Visibility from observer

Set your observer location to see the next 7 days of passes ≥ 10°. The values pass through the URL so the page stays shareable.

No JS? Fill the form by hand. The geolocation button needs JavaScript.